If you wish to contribute or participate in the discussions about articles you are invited to join SKYbrary as a registered user

 Actions

MUSC

From SKYbrary Wiki

Airport
ICAO: MUSC – IATA: SNU
Summary
Name Abel Santa Maria Airport
Region South America and Caribbean
Territory Cuba CU.gif
Location Santa Clara, Villa Clara
Serving Santa Clara
Elevation 103.022 m
Coordinates 22° 29' 26.3163", -79° 56' 40.0145"
Runways
Designator Length Width Surface ROPS
8/26 3017 m9,898.294 ft 45 m147.638 ft ASP yes/yes


METAR
Observation MUSC 241050Z VRB01KT 9000 FEW030 18/18 Q1020
Station SANTA CLARA
Date/Time 24 February 2018 10:50:00
Wind direction °
Wind speed 01 kts
Lowest cloud amount few clouds
Temperature 18°C
Dew point 18°C
Humidity 100%
QNH 1020 hPa
Weather condition n/a

BS
Tag(s) Bird Strike
WX
Tag(s) Cumulonimbus
Tropical Revolving Storm

International airport serving Santa Clara, Cuba.

Climatology

Tropical Savanna climate (Köppen climate classification Aw)

Maps

Terrain

Airport Layout

Accidents & Serious Incidents at or in vicinity of MUSC

None on SKYbrary